Flag for U.S.A. Weather past 2 weeks in Tucson, Arizona, U.S.A.

Now
66 °F

Sunny.


Feels Like: 66 °F
Forecast: 64 / 79 °F
Wind: 8 mph from Southeast

Location: Davis-Monthan Air Force Base


UV Index: 0 (Low)

Visibility: 10 mi


Pressure: 29.85 "Hg

Humidity: 37%

Dew point: 39 °F

Location of TucsonLocation

Historic Weather in Tucson

°F

Tucson temperature yesterday

Maximum temperature yesterday: 88 °F (at 3:58 PM)
Minimum temperature yesterday: 56 °F (at 4:58 AM)
Average temperature yesterday: 75 °F

Past Weeks' High & Low Weather Summary

 TemperatureHumidityPressure
High92 °F (Apr 10, 3:58 PM)44% (Apr 3, 5:58 AM)30.09 "Hg (Apr 3, 5:58 AM)
Low44 °F (Apr 3, 5:58 AM)2% (Apr 10, 3:58 PM)29.63 "Hg (Apr 12, 3:58 PM)
Average69 °F15%29.86 "Hg
* Reported Apr 3 5:58 AM — Apr 18 5:58 AM, Tucson, Weather by CustomWeather, © 2014

Note: Actual official high and low records may vary slightly from our data, if they occured in-between our weather recording intervals... More about our weather records

Advertising

Historic Weather Conditions — Data for Previous 24 hours

 ConditionsComfort  
Time TempWeatherWind HumidityBarometerVisibility
5:58 AM
Apr 18
65 °FScattered clouds.7 mph39%29.82 "Hg10 mi
4:58 AM65 °FClear.6 mph36%29.79 "Hg10 mi
3:58 AM64 °FClear.6 mph30%29.80 "Hg10 mi
2:58 AM65 °FClear.1 mph25%29.80 "Hg10 mi
1:58 AM66 °FClear.6 mph26%29.80 "Hg10 mi
12:58 AM67 °FClear.3 mph26%29.81 "Hg10 mi
11:58 PM
Apr 17
71 °FClear.2 mph21%29.81 "Hg10 mi
10:58 PM74 °FClear.6 mph20%29.81 "Hg10 mi
9:58 PM77 °FClear.9 mph16%29.80 "Hg10 mi
8:58 PM78 °FClear.7 mph12%29.80 "Hg10 mi
7:58 PM81 °FClear.6 mph10%29.75 "Hg10 mi
6:58 PM85 °FClear.2 mph8%29.74 "Hg10 mi
5:58 PM87 °FSunny.6 mph7%29.75 "Hg10 mi
4:58 PM88 °FSunny.6 mph7%29.75 "Hg10 mi
3:58 PM88 °FSunny.2 mph7%29.75 "Hg10 mi
2:58 PM87 °FSunny.9 mph7%29.77 "Hg10 mi
1:58 PM86 °FSunny.6 mph8%29.80 "Hg10 mi
12:58 PM85 °FSunny.6 mph9%29.83 "Hg10 mi
11:58 AM83 °FSunny.5 mph10%29.85 "Hg10 mi
10:58 AM80 °FSunny.5 mph12%29.87 "Hg10 mi
9:58 AM76 °FSunny.7 mph14%29.89 "Hg10 mi
8:58 AM72 °FSunny.9 mph17%29.88 "Hg10 mi
7:58 AM70 °FSunny.10 mph19%29.87 "Hg10 mi
Weather by CustomWeather, © 2014

See weather overview